Location: Pensacola
(30.4142°N, 87.2155°W)
Time: 04:41:06
(UTC-05:00)

Cosmos 1151 Rocket - Visible Passes

Search period start: 06 October 2024 00:00
Search period end: 16 October 2024 00:00
Orbit: 586 x 611 km, 82.5° (Epoch: 05 October)

Date Brightness Start Highest point End Pass type
(mag) Time Alt. Az. Time Alt. Az. Time Alt. Az.
06 Oct 3.1 05:35:54 10° SSW 05:40:02 51° W 05:44:11 10° N visible
07 Oct 5.9 04:11:28 10° ESE 04:13:52 15° E 04:16:17 10° NE visible
07 Oct 3.8 05:47:16 10° SW 05:50:59 29° W 05:54:42 10° NNW visible
08 Oct 5.1 04:23:12 21° ESE 04:24:37 25° E 04:28:06 10° NE visible
08 Oct 4.4 06:00:04 14° WSW 06:01:58 17° WNW 06:04:50 10° NW visible
09 Oct 4.2 04:35:59 40° ENE 04:35:59 40° ENE 04:39:25 10° NNE visible
09 Oct 4.9 06:12:49 10° WNW 06:12:59 10° WNW 06:13:22 10° WNW visible
10 Oct 4.4 04:48:18 29° NNE 04:48:18 29° NNE 04:50:27 10° N visible
11 Oct 5.1 05:00:18 16° N 05:00:18 16° N 05:01:15 10° N visible
